Regional Weather Roundup
Issued by NWS

Home | Current Version | Previous Version | Graphics & Text | Print | Product List | Glossary On
Versions: 1 2 3 4 5 6 7 8 9 10 11 12 13 14 15 16 17 18 19 20 21 22 23 24 25 26 27 28 29 30 31 32 33 34 35 36 37 38 39 40 41 42 43 44 45 46 47 48 49 50
000
ASUS43 KIND 011859
RWRIN

WEATHER ROUNDUP FOR INDIANA
NATIONAL WEATHER SERVICE INDIANAPOLIS IN
200 PM EST WED MAR 01 2017

NOTE: "FAIR" INDICATES FEW OR NO CLOUDS BELOW 12,000 FEET WITH NO
SIGNIFICANT WEATHER AND/OR OBSTRUCTIONS TO VISIBILITY.

* - STATION DOES NOT REPORT WEATHER SUCH AS PRECIPITATION OR FOG.

+ - STATION NOT QUALITY CONTROLLED BY THE NATIONAL WEATHER SERVICE.
    USE DATA WITH CAUTION...ESPECIALLY DEWPOINT AND RELATIVE
    HUMIDITY OBSERVATIONS.

INZ001>003-010>013-019-020-012000-
NORTHWEST INDIANA

CITY           SKY/WX    TMP DP  RH WIND       PRES   REMARKS
GARY /AIRPORT/ CLOUDY    43  36  75 W21G40    29.62R
KNOX *+        CLOUDY    43  27  52 W16G30    29.60R

$$

LMZ046-743>745-012000-
SOUTHERN LAKE MICHIGAN

STATION/POSITION TIME  TEMP    WIND        PRES    WAVE
                       AIR SEA DIR/SP/G            HT
                 (UTC) (F)     (DEG/KT/KT) (MB)    (FT)
BURNS HARBOR     1840   40     280/ 19/ 22 1003.0R
MICHIGAN CITY    1830   36     260/ 11/ 12   N/A

$$

INZ004-005-014>016-021>024-012000-
NORTH CENTRAL INDIANA

CITY           SKY/WX    TMP DP  RH WIND       PRES   REMARKS
ELKHART        CLOUDY    37  36  93 W20G28    29.56R
GOSHEN         CLOUDY    40  35  83 W25       29.55R
SOUTH BEND     LGT RAIN  36  35  96 NW16G23   29.59R

$$

INZ006>009-017-018-025>027-012000-
NORTHEAST INDIANA

CITY           SKY/WX    TMP DP  RH WIND       PRES   REMARKS
ANGOLA *+      CLOUDY    45  41  87 W18G29    29.49R
FORT WAYNE     DRIZZLE   46  41  82 W30G43    29.54R
KENDALLVILLE + CLOUDY    43  40  91 W24G41    29.42R

$$

INZ028-029-035-036-043>045-051>053-012000-
WEST CENTRAL INDIANA

CITY           SKY/WX    TMP DP  RH WIND       PRES   REMARKS
LAFAYETTE      CLOUDY    43  38  82 W33G45    29.68R
TERRE HAUTE    LGT RAIN  47  38  71 W20G37    29.78R

$$

INZ030>032-037>040-046>048-054>057-064-065-012000-
CENTRAL INDIANA

CITY           SKY/WX    TMP DP  RH WIND       PRES   REMARKS
ANDERSON       CLOUDY    46  41  81 W12G40    29.66R
COLUMBUS       CLOUDY    54  46  76 W28G40    29.71R
GREENWOOD *+   CLOUDY    47  42  85 W20G30    29.72R
INDIANAPOLIS   CLOUDY    45  40  82 W32G39    29.72R
-EAGLE CREEK   CLOUDY    46  39  76 W17G31    29.70R
KOKOMO +       CLOUDY    44  40  85 W30G43    29.64R
MT COMFORT *+  CLOUDY    45  41  87 W25G33    29.69R
SHELBYVILLE    CLOUDY    49  41  74 W24G37    29.70R

$$

INZ033-034-041-042-049-050-058-059-012000-
EAST CENTRAL INDIANA

CITY           SKY/WX    TMP DP  RH WIND       PRES   REMARKS
MUNCIE         CLOUDY    47  41  80 W24G39    29.64R

$$

INZ060-061-067>069-081>083-085>088-012000-
SOUTHWEST INDIANA

CITY           SKY/WX    TMP DP  RH WIND       PRES   REMARKS
EVANSVILLE     NOT AVBL
HUNTINGBURG *+ CLOUDY    54  43  66 W23G29    29.81R

$$

INZ062-063-066-070>080-084-089>092-012000-
SOUTH CENTRAL AND SOUTHEAST INDIANA

CITY           SKY/WX    TMP DP  RH WIND       PRES   REMARKS
BLOOMINGTON    CLOUDY    47  40  76 W15G26    29.75R

$$




USA.gov is the U.S. government's official web portal to all federal, state and local government web resources and services.